User: anonymous   Login
Location: Cahas Mountain Overlook
(37.0833°N, 80.1000°W)
Time: 01:16:35
(UTC-04:00)
Language:

A-11 Canister half - Orbit

View from above orbital plane
View from above orbital plane
View from above satellite
View from above satellite

Ground track
Ground track

The orbit is defined by the following mean orbital elements,

1 00053U          26159.86196690 +.00000000 +00000-0 +26737-3 0 00007
2 00053  47.2797   8.0135 0100570  51.3738 309.6003 12.17413519    08
Epoch (UTC): 08 June 2026 20:41:13
Eccentricity: 0.0100570
inclination: 47.2797°
perigee height: 1524 km
apogee height: 1684 km
right ascension of ascending node: 8.0135°
argument of perigee: 51.3738°
revolutions per day: 12.17413519
mean anomaly at epoch: 309.6003°

The dashed part of the orbit path shows where the satellite is in the earth's shadow,  

DLR